Hourly Weather Kyzylsharyk

Today, 31 October, Saturday

Time Temperature Precipitation Wind Pressure Humidity
00:00 +5°C° 0 mm 2 mps 711 mmHg 42%
01:00 +5°C° 0 mm 2 mps 711 mmHg 41%
02:00 +5°C° 0 mm 2 mps 711 mmHg 40%
03:00 +5°C° 0 mm 2 mps 711 mmHg 39%
04:00 +5°C° 0 mm 2 mps 711 mmHg 39%
05:00 +4°C° 0 mm 3 mps 711 mmHg 38%
06:00 +5°C° 0 mm 3 mps 711 mmHg 36%
07:00 +7°C° 0 mm 3 mps 711 mmHg 33%
08:00 +7°C° 0 mm 4 mps 711 mmHg 31%
09:00 +10°C° 0 mm 4 mps 711 mmHg 29%
10:00 +11°C° 0 mm 4 mps 710 mmHg 27%
11:00 +13°C° 0 mm 5 mps 710 mmHg 25%
12:00 +13°C° 0 mm 5 mps 709 mmHg 25%
13:00 +14°C° 0 mm 4 mps 709 mmHg 25%
14:00 +14°C° 0 mm 4 mps 709 mmHg 24%
15:00 +13°C° 0 mm 4 mps 709 mmHg 28%
16:00 +11°C° 0 mm 3 mps 709 mmHg 31%
17:00 +10°C° 0 mm 3 mps 709 mmHg 34%
18:00 +9°C° 0 mm 3 mps 709 mmHg 34%
19:00 +9°C° 0 mm 3 mps 709 mmHg 34%
20:00 +9°C° 0 mm 3 mps 709 mmHg 33%
21:00 +8°C° 0 mm 3 mps 709 mmHg 32%
22:00 +8°C° 0 mm 3 mps 709 mmHg 31%
23:00 +8°C° 0 mm 3 mps 708 mmHg 30%

Tomorrow, 1 November, Sunday

Time Temperature Precipitation Wind Pressure Humidity
00:00 +7°C° 0 mm 3 mps 708 mmHg 29%
01:00 +7°C° 0 mm 3 mps 708 mmHg 28%
02:00 +7°C° 0 mm 3 mps 708 mmHg 27%
03:00 +7°C° 0 mm 3 mps 708 mmHg 27%
04:00 +5°C° 0 mm 3 mps 708 mmHg 27%
05:00 +5°C° 0 mm 3 mps 707 mmHg 26%
06:00 +7°C° 0 mm 3 mps 707 mmHg 25%
07:00 +8°C° 0 mm 2 mps 708 mmHg 25%
08:00 +9°C° 0 mm 2 mps 708 mmHg 24%
09:00 +12°C° 0 mm 2 mps 707 mmHg 22%
10:00 +12°C° 0 mm 3 mps 707 mmHg 20%
11:00 +14°C° 0 mm 3 mps 707 mmHg 18%
12:00 +15°C° 0 mm 2 mps 707 mmHg 18%
13:00 +16°C° 0 mm 2 mps 706 mmHg 18%
14:00 +16°C° 0 mm 2 mps 706 mmHg 18%
15:00 +14°C° 0 mm 1 mps 706 mmHg 21%
16:00 +13°C° 0 mm 1 mps 706 mmHg 24%
17:00 +11°C° 0 mm 1 mps 706 mmHg 27%
18:00 +11°C° 0 mm 1 mps 706 mmHg 28%
19:00 +10°C° 0 mm 1 mps 706 mmHg 29%
20:00 +10°C° 0 mm 1 mps 706 mmHg 31%
21:00 +9°C° 0 mm 1 mps 706 mmHg 31%
22:00 +9°C° 0 mm 1 mps 706 mmHg 32%
23:00 +8°C° 0 mm 1 mps 706 mmHg 33%

Day after tomorrow, 2 November, Monday

Time Temperature Precipitation Wind Pressure Humidity
00:00 +8°C° 0 mm 1 mps 706 mmHg 33%
01:00 +8°C° 0 mm 1 mps 706 mmHg 32%
02:00 +7°C° 0 mm 1 mps 706 mmHg 32%
03:00 +8°C° 0 mm 1 mps 706 mmHg 30%
04:00 +8°C° 0 mm 1 mps 706 mmHg 28%
05:00 +7°C° 0 mm 2 mps 706 mmHg 26%
06:00 +8°C° 0 mm 2 mps 706 mmHg 25%
07:00 +9°C° 0 mm 2 mps 706 mmHg 24%
08:00 +10°C° 0 mm 2 mps 707 mmHg 23%
09:00 +11°C° 0 mm 3 mps 706 mmHg 21%
10:00 +13°C° 0 mm 3 mps 706 mmHg 19%
11:00 +14°C° 0 mm 3 mps 706 mmHg 17%
12:00 +16°C° 0 mm 3 mps 706 mmHg 17%
13:00 +16°C° 0 mm 3 mps 706 mmHg 17%
14:00 +17°C° 0 mm 3 mps 706 mmHg 17%
15:00 +15°C° 0 mm 2 mps 706 mmHg 20%
16:00 +13°C° 0 mm 2 mps 706 mmHg 23%
17:00 +12°C° 0 mm 1 mps 706 mmHg 26%
18:00 +11°C° 0 mm 1 mps 706 mmHg 27%
19:00 +11°C° 0 mm 1 mps 706 mmHg 27%
20:00 +9°C° 0 mm 2 mps 707 mmHg 27%
21:00 +9°C° 0 mm 2 mps 707 mmHg 27%
22:00 +9°C° 0 mm 2 mps 707 mmHg 27%
23:00 +9°C° 0 mm 2 mps 707 mmHg 26%

3 November, Tuesday

Time Temperature Precipitation Wind Pressure Humidity
00:00 +9°C° 0 mm 2 mps 706 mmHg 26%
01:00 +8°C° 0 mm 2 mps 706 mmHg 26%
02:00 +8°C° 0 mm 2 mps 706 mmHg 26%
03:00 +8°C° 0 mm 2 mps 706 mmHg 26%
04:00 +7°C° 0 mm 2 mps 706 mmHg 26%
05:00 +7°C° 0 mm 2 mps 706 mmHg 26%
06:00 +8°C° 0 mm 2 mps 707 mmHg 25%
07:00 +9°C° 0 mm 2 mps 707 mmHg 23%
08:00 +10°C° 0 mm 2 mps 707 mmHg 22%
09:00 +13°C° 0 mm 2 mps 707 mmHg 20%
10:00 +14°C° 0 mm 2 mps 707 mmHg 18%
11:00 +16°C° 0 mm 2 mps 706 mmHg 17%
12:00 +16°C° 0 mm 2 mps 706 mmHg 16%
13:00 +17°C° 0 mm 2 mps 706 mmHg 16%
14:00 +17°C° 0 mm 2 mps 706 mmHg 16%
15:00 +16°C° 0 mm 1 mps 706 mmHg 19%
16:00 +14°C° 0 mm 1 mps 706 mmHg 22%
17:00 +12°C° 0 mm 1 mps 706 mmHg 24%
18:00 +12°C° 0 mm 1 mps 706 mmHg 25%
19:00 +11°C° 0 mm 1 mps 706 mmHg 25%
20:00 +11°C° 0 mm 1 mps 706 mmHg 25%
21:00 +10°C° 0 mm 2 mps 706 mmHg 25%
22:00 +10°C° 0 mm 2 mps 706 mmHg 25%
23:00 +10°C° 0 mm 3 mps 706 mmHg 25%

4 November, Wednesday

Time Temperature Precipitation Wind Pressure Humidity
00:00 +10°C° 0 mm 4 mps 706 mmHg 26%
01:00 +8°C° 0 mm 4 mps 706 mmHg 28%
02:00 +8°C° 0 mm 4 mps 706 mmHg 29%
03:00 +8°C° 0 mm 5 mps 706 mmHg 34%
04:00 +7°C° 0 mm 6 mps 707 mmHg 39%
05:00 +5°C° 0 mm 6 mps 707 mmHg 43%
06:00 +4°C° 0.7 mm 6 mps 708 mmHg 58%
07:00 +4°C° 0.7 mm 6 mps 708 mmHg 72%
08:00 +3°C° 0.7 mm 5 mps 709 mmHg 86%
09:00 +3°C° 0.2 mm 6 mps 709 mmHg 81%
10:00 +4°C° 0.2 mm 6 mps 709 mmHg 75%
11:00 +5°C° 0.2 mm 6 mps 709 mmHg 70%
12:00 +7°C° 0 mm 5 mps 709 mmHg 67%
13:00 +7°C° 0 mm 5 mps 709 mmHg 64%
14:00 +8°C° 0 mm 5 mps 709 mmHg 62%
15:00 +7°C° 0 mm 4 mps 709 mmHg 62%
16:00 +8°C° 0 mm 3 mps 709 mmHg 63%
17:00 +7°C° 0 mm 3 mps 710 mmHg 63%
18:00 +7°C° 0 mm 2 mps 710 mmHg 63%
19:00 +6°C° 0 mm 2 mps 710 mmHg 63%
20:00 +7°C° 0 mm 1 mps 710 mmHg 62%
21:00 +6°C° 0 mm 2 mps 710 mmHg 62%
22:00 +6°C° 0 mm 2 mps 710 mmHg 61%
23:00 +5°C° 0 mm 2 mps 710 mmHg 60%

5 November, Thursday

Time Temperature Precipitation Wind Pressure Humidity
00:00 +4°C° 0 mm 3 mps 709 mmHg 59%
01:00 +4°C° 0 mm 3 mps 709 mmHg 58%
02:00 +4°C° 0 mm 3 mps 709 mmHg 56%
03:00 +4°C° 0 mm 3 mps 709 mmHg 56%
04:00 +4°C° 0 mm 3 mps 709 mmHg 55%
05:00 +4°C° 0 mm 4 mps 709 mmHg 54%
06:00 +5°C° 0 mm 4 mps 709 mmHg 53%
07:00 +5°C° 0 mm 4 mps 709 mmHg 51%
08:00 +5°C° 0 mm 4 mps 709 mmHg 50%
09:00 +6°C° 0 mm 5 mps 709 mmHg 48%
10:00 +7°C° 0 mm 5 mps 709 mmHg 46%
11:00 +7°C° 0 mm 6 mps 708 mmHg 44%
12:00 +8°C° 0 mm 6 mps 708 mmHg 43%
13:00 +8°C° 0 mm 6 mps 708 mmHg 42%
14:00 +8°C° 0 mm 6 mps 708 mmHg 42%
15:00 +7°C° 0 mm 5 mps 709 mmHg 44%
16:00 +6°C° 0 mm 4 mps 709 mmHg 47%
17:00 +5°C° 0 mm 4 mps 710 mmHg 50%
18:00 +5°C° 0 mm 4 mps 710 mmHg 50%
19:00 +5°C° 0 mm 3 mps 710 mmHg 50%
20:00 +4°C° 0 mm 3 mps 710 mmHg 49%
21:00 +4°C° 0 mm 3 mps 710 mmHg 49%
22:00 +4°C° 0 mm 3 mps 710 mmHg 48%
23:00 +4°C° 0 mm 3 mps 710 mmHg 48%
Show more

We Need Your Consent

Meteoprog and our Service Providers may store and access personal data such as cookies, device identifiers or other similar technologies on your device and process such data to personalise content and ads, as well as provide social media features and to analyse the traffic.

  • Store and/or access information on your device

    Cookies, device identifiers or other information can be stored or accessed on your device for the purposes indicated above.

  • Personalised ads and content, ad and content measurement, audience insights, and products development

    Ads and content can be personalised based on a profile. More data can be added to better personalise ads and content. Ad and content performance can be measured. Insights about the audience who saw the ads and content can be derived. Such data can be used to develop or improve user’s experience, systems and software.

By clicking ‘I Agree’ you will allow the use of indicated cookies, device identifiers, web beacons or other similar technologies. Your settings can be changed in the browser on your device.

For certain purposes, legitimate interests may be relied on, rather than consent. You can read more about this in our Privacy and Cookie Policy.